Notices

What's New in latest Release from April 7th, 2021:

- Updated Glossary, including Speed of Maximum Gust, and Total Hourly Precipitation

- Updated national and regional climate services offices contacts and prices information

- Addition of station inventory lists for 1981-2010, 1971-2000, and 1961-1990 Normals.

If you haven't already, please take our survey and provide feedback about our website: https://eccc.sondage-survey.ca/f/LanguageSelection.aspx?s=442ca660-fcf1-47c0-95a9-59707d6fd709

Hourly Data Report for October 03, 2006

TORONTO CITY
ONTARIO

43°40'00.000" N
79°24'00.000" W
112.50 m
6158355
71508
XTO

Download Data

Hourly Data (October 2006)
Hourly Data Report for October 3, 2006
TIME
LST
Temp Definition
°C
Dew Point Definition
°C
Rel Hum Definition
%
Precip. Amount Definition
mm

Wind Dir Definition
10's deg

Wind Spd Definition
km/h
Visibility Definition
km
Stn Press Definition
kPa
Hmdx Definition


Wind Chill Definition


Weather Definition


00:00 15.4 14.3 93   LegendMM LegendMM   100.38     LegendNANA
01:00 15.1 14.2 94   LegendMM LegendMM   100.32     LegendNANA
02:00 14.1 13.5 96   LegendMM LegendMM   100.36     LegendNANA
03:00 14.1 13.8 98   LegendMM LegendMM   100.33     LegendNANA
04:00 13.8 13.5 98   LegendMM LegendMM   100.35     LegendNANA
05:00 14.6 14.4 99   LegendMM LegendMM   100.37     LegendNANA
06:00 15.4 15.1 98   LegendMM LegendMM   100.46     LegendNANA
07:00 15.1 14.8 98   LegendMM LegendMM   100.48     LegendNANA
08:00 15.5 15.3 99   LegendMM LegendMM   100.51     LegendNANA
09:00 15.6 15.4 99   LegendMM LegendMM   100.46     LegendNANA
10:00 16.2 16.0 99   LegendMM LegendMM   100.60     LegendNANA
11:00 18.7 18.1 96   LegendMM LegendMM   100.50     LegendNANA
12:00 21.7 18.4 82   LegendMM LegendMM   100.45 28   LegendNANA
13:00 23.1 17.7 72   LegendMM LegendMM   100.45 29   LegendNANA
14:00 21.9 17.7 77   LegendMM LegendMM   100.49 28   LegendNANA
15:00 20.3 17.6 84   LegendMM LegendMM   100.47 26   LegendNANA
16:00 19.5 16.8 84   LegendMM LegendMM   100.48     LegendNANA
17:00 19.1 16.5 85   LegendMM LegendMM   100.49     LegendNANA
18:00 18.1 15.9 87   LegendMM LegendMM   100.56     LegendNANA
19:00 17.5 15.4 87   LegendMM LegendMM   100.61     LegendNANA
20:00 16.6 15.6 94   LegendMM LegendMM   100.63     LegendNANA
21:00 16.0 15.4 96   LegendMM LegendMM   100.67     LegendNANA
22:00 15.3 14.9 97   LegendMM LegendMM   100.64     LegendNANA
23:00 15.0 14.7 98   LegendMM LegendMM   100.56     LegendNANA

Notes on Data Quality.

Legend

  • E = Estimated
  • M = Missing
  • NA = Not Available*
  • [empty] = Indicates an unobserved value
Date modified: